[[{"header":{"parameterUnit":"m.s-1","parameterCategory":1,"la1":30.2991,"la2":30.254,"lo1":-89.0895,"lo2":-89.0444,"dy":0.0017,"dx":0.0017,"nx":28,"ny":28,"refTime":"2024-06-26T09:00:00:Z","depth":0,"parameterNumber":2,"parameterNumberName":"U-component_of_WINDS"},"data":[0,0,0,0,0,0,0,0,0,0,0,0,0,0,0,0,0,0,0,0,0,0,0,0,0,0,0,0,0,0,0,0,0,0,0,0,0,0,0,0,0,0,0,0,0,0,0,0,0,0,0,0,0,0,0,0,0,0,2.1532,2.1534,0,2.1687,2.1689,2.169,2.1649,2.1646,2.1643,2.164,2.1807,2.1814,2.1821,0,0,0,0,0,0,0,0,0,0,0,0,0,2.1207,2.1214,2.1532,2.1534,2.1536,2.1687,2.1689,2.1691,2.165,2.1646,2.1642,2.1639,2.1805,2.1813,2.1822,0,0,0,0,0,0,0,0,0,0,0,0,0,2.1354,2.1216,2.1532,2.1533,2.1535,2.1686,2.1689,2.1691,2.1651,2.1646,2.1641,2.1637,2.1802,2.1812,2.1823,2.1985,0,0,2.1857,2.1862,0,0,0,0,0,0,0,0,2.1346,2.1366,2.1531,2.1533,2.1536,2.1644,2.1635,2.179,2.1652,2.1607,2.164,2.1635,2.1757,2.1771,2.1811,2.1992,2.1999,2.1858,2.1864,2.1869,2.1872,0,0,0,0,0,0,0,2.1336,2.1359,2.1593,2.1534,2.1536,2.1529,2.1544,2.1665,2.1707,2.1611,2.1608,2.1626,2.1757,2.18,2.1815,2.2002,2.1857,2.1867,2.1874,2.1878,2.2324,2.2329,0,0,0,0,0,0,2.1323,2.1351,2.1589,2.1598,2.1427,2.1538,2.1556,2.1614,2.1705,2.1714,2.163,2.1624,2.1784,2.1802,2.182,2.2015,2.1869,2.1879,2.1886,2.2319,2.2325,2.2331,0,0,0,0,0,0,2.1316,2.1344,2.1582,2.1474,2.1504,2.1549,2.1615,2.162,2.1662,2.172,2.1728,2.1666,2.1781,2.1805,2.1943,2.202,2.1884,2.1894,2.2312,2.2321,2.2328,2.2406,0,0,0,0,0,0,2.1307,2.1342,2.1402,2.1475,2.1509,2.1701,2.1619,2.1626,2.1681,2.1674,2.1756,2.1765,2.1779,2.1927,2.1954,2.2033,2.1903,2.2306,2.2316,2.2325,2.2397,2.2415,2.2431,0,0,0,0,0,2.1295,2.142,2.1406,2.1435,2.1585,2.1705,2.1725,2.1737,2.1687,2.1749,2.1786,2.1762,2.2007,2.1942,2.1972,2.2055,2.2301,2.2313,2.2324,2.2389,2.2412,2.2431,0,0,0,0,0,0,2.1358,2.143,2.1415,2.1566,2.1629,2.1698,2.1777,2.1761,2.1842,2.1833,2.1846,2.1865,2.2007,2.2045,2.197,2.2216,2.2147,2.2166,2.2186,2.2208,2.2225,2.2213,2.1912,0,0,0,0,0,2.1389,2.1478,2.1537,2.1665,2.1697,2.1731,2.1784,2.1787,2.1855,2.1883,2.193,2.1998,2.2091,2.2151,2.224,2.2402,2.242,2.2474,2.2491,2.2505,2.2521,2.261,2.2635,2.2369,2.2369,2.2369,0,0,2.1455,2.1505,2.1561,2.1679,2.1728,2.1822,2.1755,2.1857,2.1928,2.1899,2.2032,2.2069,2.2147,2.2298,2.2367,2.2334,2.2599,2.252,2.2531,2.254,2.2625,2.265,2.2673,2.2377,2.2376,2.2374,0,0,2.1622,2.1669,2.178,2.183,2.1905,2.1927,2.1954,2.2025,2.2048,2.2181,2.2161,2.2246,2.2405,2.2461,2.251,2.2698,2.268,2.2727,2.2818,2.2905,2.2926,2.2944,2.3012,2.3036,2.2742,2.2743,2.2743,0,2.1695,2.1833,2.184,2.1944,2.1997,2.1972,2.2086,2.2136,2.2237,2.2275,2.2236,2.2435,2.2485,2.2649,2.2694,2.2735,2.2768,2.2718,2.2921,2.294,2.2958,2.3023,2.3048,2.2748,2.2747,2.2747,2.2746,0,2.192,2.2016,2.2098,2.2192,2.2255,2.2364,2.2389,2.2451,2.2449,2.2476,2.2612,2.2671,2.2771,2.281,2.281,2.2974,2.2952,2.2917,2.2848,2.2988,2.3049,2.3074,2.2755,2.2753,2.2752,2.2751,0,0,2.2132,2.2228,2.2258,2.23,2.2381,2.2457,2.2565,2.2659,2.2713,2.2784,2.2876,2.301,2.2978,2.3034,2.3041,2.3116,2.3262,2.3073,2.3075,2.3106,2.3447,2.3473,2.3501,2.325,2.3255,2.3258,2.3441,0,2.2307,2.2494,2.2503,2.2674,2.2764,2.2741,2.2836,2.2896,2.2924,2.3006,2.3038,2.3133,2.3083,2.3117,2.3191,2.3228,2.3331,2.3215,2.3338,2.3342,2.3319,2.3533,2.3561,2.373,2.3464,2.3469,2.3471,0,2.2536,2.261,2.279,2.2856,2.2895,2.2979,2.3066,2.3144,2.3213,2.3228,2.329,2.3285,2.3398,2.3324,2.3481,2.3402,2.3453,2.3479,2.3486,2.3499,2.3416,2.3552,2.3784,2.381,2.3509,2.3506,2.3503,0,2.2673,2.2819,2.2944,2.2982,2.3063,2.3123,2.316,2.3224,2.328,2.3357,2.3394,2.3484,2.3534,2.3606,2.3626,2.357,2.3783,2.3711,2.38,2.38,2.3846,2.3843,2.4091,2.3878,2.3878,2.3877,2.3877,0,2.2868,2.2979,2.3007,2.3085,2.3208,2.3218,2.3341,2.3375,2.3432,2.3517,2.3504,2.3585,2.3607,2.3693,2.371,2.3837,2.386,2.3877,2.388,2.3878,2.3876,2.3912,2.3901,2.3884,2.3883,2.3881,2.388,0,2.3043,2.3066,2.3201,2.3266,2.3285,2.3373,2.343,2.3506,2.353,2.3639,2.3665,2.3706,2.3806,2.3833,2.3954,2.3965,2.4115,2.4108,2.4091,2.4091,2.4179,2.417,2.4459,2.4497,2.4259,2.4261,2.4263,0,2.3165,2.325,2.3322,2.3377,2.3416,2.3505,2.3561,2.3574,2.3634,2.3718,2.3784,2.3882,2.3961,2.4122,2.4164,2.4257,2.4251,2.4346,2.4266,2.4261,2.4254,2.4249,2.4257,2.4362,2.4364,2.4366,2.4368,0,2.3381,2.3388,2.3468,2.3553,2.362,2.3688,2.3753,2.3799,2.3822,2.389,2.399,2.4051,2.4173,2.4271,2.4364,2.4405,2.4392,2.4392,2.4418,2.4418,2.4405,2.4413,2.4133,2.4386,2.4384,2.4383,2.4382,2.4381,2.3535,2.3608,2.367,2.376,2.381,2.3871,2.3944,2.3977,2.406,2.4158,2.4162,2.4271,2.4339,2.4462,2.4508,2.4595,2.4567,2.4604,2.4614,2.4623,2.4631,2.439,2.4612,2.4612,2.4611,2.4611,2.4611,0,2.375,2.3788,2.3871,2.3961,2.4032,2.4009,2.408,2.4142,2.4237,2.4299,2.4376,2.4492,2.4587,2.4635,2.473,2.4791,2.4787,2.4815,2.4811,2.4821,2.465,2.4618,2.4817,2.4817,2.4816,2.4816,2.4816,2.4816,2.3871,2.3994,2.4008,2.4156,2.4194,2.4299,2.4341,2.4398,2.4448,2.4576,2.4654,2.4683,2.4741,2.4839,2.4926,2.4938,2.4974,2.5006,2.5015,2.4854,2.4833,2.4813,2.4784,2.5013,2.5014,2.5179,2.518,2.5182]},{"header":{"parameterUnit":"m.s-1","parameterCategory":1,"la1":30.2991,"la2":30.254,"lo1":-89.0895,"lo2":-89.0444,"dy":0.0017,"dx":0.0017,"nx":28,"ny":28,"refTime":"2024-06-26T09:00:00:Z","depth":0,"parameterNumber":3,"parameterNumberName":"V-component_of_WINDS"},"data":[0,0,0,0,0,0,0,0,0,0,0,0,0,0,0,0,0,0,0,0,0,0,0,0,0,0,0,0,0,0,0,0,0,0,0,0,0,0,0,0,0,0,0,0,0,0,0,0,0,0,0,0,0,0,0,0,0,0,1.7186,1.7187,0,1.7278,1.7279,1.728,1.7234,1.7232,1.7229,1.7227,1.7325,1.733,1.7335,0,0,0,0,0,0,0,0,0,0,0,0,0,1.6974,1.6979,1.7186,1.7187,1.7188,1.7278,1.7279,1.728,1.7235,1.7232,1.7229,1.7226,1.7324,1.733,1.7335,0,0,0,0,0,0,0,0,0,0,0,0,0,1.7066,1.698,1.7186,1.7176,1.7176,1.7277,1.7279,1.728,1.7235,1.7232,1.7228,1.7225,1.7322,1.7329,1.7336,1.7453,0,0,1.7358,1.7362,0,0,0,0,0,0,0,0,1.7061,1.7074,1.7176,1.7177,1.7177,1.7241,1.724,1.7339,1.7236,1.7213,1.7227,1.7223,1.73,1.7309,1.7335,1.7458,1.7462,1.7359,1.7364,1.7367,1.7369,0,0,0,0,0,0,0,1.7055,1.707,1.7222,1.7178,1.7178,1.7168,1.7177,1.7259,1.7276,1.7215,1.7212,1.7223,1.73,1.7328,1.7337,1.7463,1.7359,1.7365,1.737,1.7373,1.7688,1.7691,0,0,0,0,0,0,1.7048,1.7065,1.7219,1.7225,1.7109,1.7175,1.7185,1.7224,1.7275,1.7279,1.7226,1.722,1.7317,1.7328,1.734,1.7481,1.7367,1.7373,1.7378,1.7684,1.7689,1.7693,0,0,0,0,0,0,1.7044,1.7063,1.7216,1.7144,1.7163,1.7183,1.7227,1.7228,1.7255,1.7283,1.7286,1.7251,1.7315,1.733,1.7425,1.7483,1.7377,1.7383,1.7679,1.7685,1.7691,1.7763,0,0,0,0,0,0,1.7038,1.7061,1.7105,1.7145,1.7167,1.7299,1.723,1.7232,1.7268,1.7261,1.7307,1.7312,1.7313,1.7415,1.7432,1.7491,1.7389,1.7674,1.7682,1.7689,1.7756,1.7771,1.7784,0,0,0,0,0,1.7031,1.7123,1.7108,1.7127,1.7222,1.7302,1.7314,1.7313,1.7272,1.7317,1.7335,1.731,1.7474,1.7425,1.7444,1.7507,1.767,1.768,1.7688,1.7749,1.7768,1.7783,0,0,0,0,0,0,1.7091,1.7128,1.7112,1.7219,1.7258,1.7294,1.7351,1.7332,1.7384,1.7377,1.7373,1.7384,1.7483,1.7504,1.7449,1.7623,1.7566,1.7579,1.7606,1.7623,1.7637,1.7631,1.7395,0,0,0,0,0,1.7116,1.7177,1.7206,1.7299,1.7318,1.7331,1.7366,1.7361,1.7402,1.7418,1.7443,1.7484,1.7545,1.7585,1.7642,1.7758,1.7768,1.781,1.7824,1.7836,1.7848,1.7911,1.7931,1.7722,1.7722,1.7722,0,0,1.717,1.7198,1.7237,1.7311,1.734,1.7405,1.7346,1.7416,1.7464,1.7429,1.7521,1.7541,1.7586,1.7692,1.774,1.7713,1.7907,1.7847,1.7856,1.7862,1.7922,1.7942,1.796,1.7729,1.7727,1.7726,0,0,1.7301,1.7327,1.7407,1.7437,1.7482,1.7489,1.7509,1.7548,1.7559,1.7651,1.7626,1.7683,1.7788,1.7821,1.7852,1.7995,1.7974,1.8014,1.8088,1.815,1.8166,1.8181,1.8232,1.8251,1.8025,1.8025,1.8026,0,1.7363,1.7457,1.7451,1.7523,1.7557,1.7527,1.7608,1.7638,1.77,1.7725,1.7692,1.7822,1.7851,1.7965,1.7999,1.8025,1.8048,1.8009,1.8164,1.8178,1.8192,1.8241,1.8261,1.803,1.8029,1.8029,1.8029,0,1.7531,1.7597,1.7656,1.7715,1.7755,1.7832,1.7838,1.788,1.7872,1.7883,1.7977,1.801,1.8074,1.81,1.8093,1.8213,1.8195,1.8163,1.8107,1.8216,1.8263,1.8282,1.8037,1.8035,1.8034,1.8032,0,0,1.7704,1.7757,1.7779,1.7805,1.7852,1.7903,1.7978,1.8039,1.8075,1.8119,1.8183,1.8271,1.8242,1.8277,1.8273,1.8327,1.8439,1.8289,1.829,1.8317,1.8575,1.8599,1.8621,1.8425,1.8428,1.8431,1.8571,0,1.7839,1.7969,1.7966,1.8088,1.8149,1.8121,1.8186,1.8222,1.8235,1.829,1.8304,1.8367,1.8323,1.8344,1.8396,1.8414,1.8491,1.8404,1.8486,1.8489,1.8477,1.8645,1.8671,1.8802,1.8589,1.8592,1.8594,0,1.8014,1.8061,1.8189,1.8226,1.8252,1.8311,1.8366,1.8418,1.8459,1.8464,1.8503,1.849,1.8568,1.8507,1.8615,1.8556,1.8589,1.8603,1.8608,1.8617,1.8549,1.866,1.8843,1.8863,1.8623,1.862,1.8618,0,1.8128,1.8224,1.8313,1.8336,1.8382,1.8424,1.8445,1.8482,1.8518,1.8567,1.8591,1.8648,1.868,1.8725,1.8729,1.8685,1.8838,1.8778,1.8846,1.8846,1.8881,1.8879,1.9073,1.89,1.8899,1.8899,1.8899,0,1.828,1.836,1.8365,1.842,1.8509,1.8504,1.8592,1.8609,1.8642,1.8701,1.868,1.8735,1.8736,1.8793,1.8797,1.8886,1.89,1.8907,1.8908,1.891,1.891,1.8933,1.8925,1.8904,1.8903,1.8902,1.8901,0,1.8424,1.843,1.8525,1.856,1.857,1.8634,1.8664,1.8717,1.8727,1.8801,1.8818,1.8835,1.8901,1.8908,1.8986,1.8988,1.9096,1.9086,1.9082,1.9081,1.9149,1.9143,1.9367,1.9396,1.9202,1.9204,1.9206,0,1.8521,1.8581,1.8622,1.8658,1.8681,1.8742,1.8778,1.8776,1.8816,1.8866,1.8913,1.8977,1.9028,1.9135,1.9154,1.9214,1.9206,1.928,1.9215,1.9215,1.9208,1.9205,1.9212,1.9293,1.9295,1.9297,1.9298,0,1.8693,1.8693,1.8746,1.8801,1.8845,1.8888,1.8929,1.8961,1.8963,1.9009,1.9076,1.9115,1.9193,1.9257,1.9315,1.9338,1.932,1.9318,1.9338,1.9342,1.9337,1.9342,1.9118,1.9314,1.9312,1.9311,1.931,1.931,1.8817,1.8869,1.8906,1.8966,1.8996,1.9034,1.9085,1.9101,1.9156,1.9219,1.9214,1.9288,1.9327,1.9403,1.943,1.9488,1.9464,1.9492,1.9499,1.9506,1.9513,1.9327,1.9499,1.9499,1.9498,1.9498,1.9497,0,1.8989,1.9011,1.9066,1.9122,1.917,1.9146,1.919,1.9232,1.9296,1.9334,1.9384,1.9461,1.9522,1.9546,1.9607,1.9649,1.9642,1.9665,1.9663,1.9669,1.9531,1.9509,1.967,1.967,1.967,1.967,1.967,1.967,1.9084,1.9172,1.9176,1.9278,1.93,1.9371,1.9398,1.9433,1.9463,1.9549,1.96,1.9615,1.9647,1.971,1.9766,1.9771,1.9795,1.9822,1.9824,1.9696,1.9678,1.9662,1.9641,1.9827,1.9827,1.9957,1.9958,1.9959]}]]